Fremont, MI

2:48 PM EST on November 20, 2019 (GMT -0500)
Fremont

Weather History for KFFX - July, 2019

Change the Weather History Date:

Wednesday, July 10, 2019

  Actual Average (KMKG) Record (KMKG)
Temperature  
Mean Temperature 77 °F -  
Max Temperature 89 °F 80 °F 90 °F (2018)
Min Temperature 65 °F 61 °F 44 °F (1996)
Cooling Degree Days 12    
Growing Degree Days 27 (Base 50)    
Moisture  
Dew Point 64 °F    
Average Humidity 65    
Maximum Humidity 89    
Minimum Humidity 46    
Precipitation  
Precipitation 0.00 in - - ()
Sea Level Pressure  
Sea Level Pressure 29.90 in    
Wind  
Wind Speed 6 mph (SSW)    
Max Wind Speed 14 mph    
Max Gust Speed 18 mph    
Visibility 10 miles    
Events Rain    
Averages and records for this station are not official NWS values.
T = Trace of Precipitation, MM = Missing Value Source: NWS Daily Summary

Daily Weather History Graph

Daily Weather History Graph

Search for Another Location

Airport or City:

Astronomy

Jul. 10, 2019 Rise Set
Actual Time 6:12 AM EDT 9:25 PM EDT
Civil Twilight 5:37 AM EDT 10:00 PM EDT
Nautical Twilight 4:52 AM EDT 10:45 PM EDT
Astronomical Twilight 3:57 AM EDT 11:40 PM EDT
Moon 3:23 PM EDT (7/10) 2:00 AM EDT (7/10)
Length of Visible Light 16h 22m
Length of Day
15h 12m
Waxing Gibbous, 63% of the Moon is Illuminated
Jul 10
Waxing Gibbous
Jul 16
Full
Jul 24
Last Quarter
Jul 31
New
Aug 7
First Quarter

Hourly Weather History & Observations

Time (EDT) Temp. Heat Index Dew Point Humidity Pressure Visibility Wind Dir Wind Speed Gust Speed Precip Events Conditions
12:19 AM 69.3 °F - 59.2 °F 70% 29.97 in 10.0 mi SE 5.8 mph - N/A   Clear
12:37 AM 68.7 °F - 59.4 °F 72% 29.96 in 10.0 mi SE 6.9 mph - N/A   Clear
12:55 AM 69.3 °F - 58.6 °F 69% 29.96 in 10.0 mi SE 5.8 mph - N/A   Clear
1:15 AM 67.8 °F - 58.5 °F 72% 29.96 in 10.0 mi Calm Calm - N/A   Clear
1:35 AM 67.1 °F - 58.3 °F 73% 29.95 in 10.0 mi SE 4.6 mph - N/A   Clear
1:58 AM 66.4 °F - 58.1 °F 75% 29.96 in 10.0 mi Calm Calm - N/A   Clear
2:16 AM 65.5 °F - 58.1 °F 77% 29.96 in 10.0 mi ESE 3.5 mph - N/A   Clear
2:35 AM 65.1 °F - 58.3 °F 78% 29.96 in 10.0 mi SE 3.5 mph - N/A   Clear
2:36 AM 65.1 °F - 58.3 °F 78% 29.96 in 10.0 mi ESE 3.5 mph - N/A   Clear
2:55 AM 65.7 °F - 58.1 °F 77% 29.96 in 10.0 mi SE 4.6 mph - N/A   Clear
3:19 AM 67.3 °F - 57.7 °F 71% 29.95 in 10.0 mi SE 4.6 mph - N/A   Scattered Clouds
3:37 AM 67.6 °F - 57.7 °F 71% 29.95 in 10.0 mi SE 4.6 mph - N/A   Mostly Cloudy
3:55 AM 67.8 °F - 57.4 °F 69% 29.95 in 10.0 mi SSE 3.5 mph - N/A   Mostly Cloudy
4:15 AM 68.0 °F - 57.4 °F 69% 29.94 in 10.0 mi Calm Calm - N/A   Scattered Clouds
4:16 AM 68.0 °F - 57.4 °F 69% 29.94 in 10.0 mi Calm Calm - N/A   Scattered Clouds
4:35 AM 68.4 °F - 57.6 °F 68% 29.95 in 10.0 mi Calm Calm - N/A   Mostly Cloudy
4:40 AM 68.5 °F - 57.4 °F 67% 29.94 in 10.0 mi Calm Calm - N/A   Overcast
4:58 AM 68.9 °F - 57.7 °F 68% 29.94 in 10.0 mi Calm Calm - N/A   Overcast
5:16 AM 68.9 °F - 57.7 °F 68% 29.94 in 10.0 mi Calm Calm - N/A   Overcast
5:35 AM 69.1 °F - 57.7 °F 67% 29.94 in 10.0 mi SSE 3.5 mph - N/A   Overcast
5:55 AM 69.8 °F - 57.2 °F 64% 29.94 in 10.0 mi South 3.5 mph - N/A   Mostly Cloudy
5:56 AM 69.8 °F - 57.2 °F 64% 29.94 in 10.0 mi South 3.5 mph - N/A   Mostly Cloudy
6:19 AM 69.6 °F - 58.1 °F 67% 29.95 in 10.0 mi SSW 3.5 mph - N/A   Overcast
6:37 AM 67.1 °F - 60.6 °F 80% 29.95 in 4.0 mi SSE 3.5 mph - N/A Rain Rain
6:55 AM 66.0 °F - 61.7 °F 86% 29.94 in 10.0 mi SSE 4.6 mph - N/A Rain Light Rain
7:15 AM 65.8 °F - 62.4 °F 89% 29.94 in 10.0 mi Calm Calm - N/A   Mostly Cloudy
7:35 AM 66.2 °F - 63.0 °F 89% 29.93 in 10.0 mi SE 4.6 mph - N/A   Mostly Cloudy
7:58 AM 66.7 °F - 63.5 °F 89% 29.93 in 10.0 mi SSE 3.5 mph - N/A   Mostly Cloudy
8:15 AM 66.7 °F - 63.5 °F 89% 29.92 in 10.0 mi SSE 3.5 mph - N/A   Mostly Cloudy
8:35 AM 68.7 °F - 64.6 °F 87% 29.92 in 10.0 mi South 3.5 mph - N/A   Clear
8:36 AM 68.7 °F - 64.6 °F 87% 29.92 in 10.0 mi South 4.6 mph - N/A   Clear
8:55 AM 70.5 °F - 65.1 °F 83% 29.92 in 10.0 mi South 5.8 mph - N/A   Clear
9:19 AM 72.3 °F - 65.5 °F 79% 29.93 in 10.0 mi South 5.8 mph - N/A   Clear
9:37 AM 73.8 °F - 66.0 °F 77% 29.92 in 10.0 mi SSW 6.9 mph - N/A   Scattered Clouds
9:55 AM 74.8 °F - 66.6 °F 75% 29.92 in 10.0 mi SSW 8.1 mph - N/A   Mostly Cloudy
9:56 AM 75.0 °F - 66.7 °F 75% 29.92 in 10.0 mi SSW 8.1 mph - N/A   Mostly Cloudy
10:15 AM 76.3 °F - 67.1 °F 73% 29.92 in 10.0 mi SW 8.1 mph - N/A   Scattered Clouds
10:16 AM 76.5 °F - 67.1 °F 73% 29.92 in 10.0 mi SW 6.9 mph - N/A   Scattered Clouds
10:35 AM 78.4 °F - 67.6 °F 69% 29.92 in 10.0 mi SW 9.2 mph - N/A   Clear
10:58 AM 80.1 °F 82.8 °F 68.7 °F 68% 29.92 in 10.0 mi SW 8.1 mph - N/A   Clear
11:16 AM 80.2 °F 82.7 °F 67.6 °F 65% 29.92 in 10.0 mi WSW 11.5 mph - N/A   Mostly Cloudy
11:35 AM 78.8 °F - 68.0 °F 69% 29.92 in 10.0 mi SW 6.9 mph - N/A   Overcast
11:36 AM 79.0 °F - 68.2 °F 69% 29.92 in 10.0 mi SW 8.1 mph - N/A   Overcast
11:55 AM 80.1 °F 82.8 °F 68.5 °F 68% 29.92 in 10.0 mi SSW 10.4 mph - N/A   Overcast
12:19 PM 81.0 °F 84.1 °F 69.3 °F 67% 29.92 in 10.0 mi WSW 9.2 mph - N/A   Overcast
12:37 PM 81.0 °F 84.2 °F 69.6 °F 68% 29.92 in 10.0 mi SW 6.9 mph - N/A   Overcast
1:15 PM 82.9 °F 87.0 °F 70.2 °F 65% 29.92 in 10.0 mi SSW 10.4 mph - N/A   Overcast
1:35 PM 84.4 °F 89.0 °F 70.5 °F 63% 29.91 in 10.0 mi SSW 6.9 mph - N/A   Scattered Clouds
1:58 PM 84.4 °F 89.0 °F 70.5 °F 63% 29.91 in 10.0 mi SSW 9.2 mph - N/A   Scattered Clouds
2:16 PM 84.0 °F 88.7 °F 70.5 °F 64% 29.89 in 10.0 mi SSW 8.1 mph - N/A   Mostly Cloudy
2:35 PM 85.3 °F 90.1 °F 70.3 °F 61% 29.89 in 10.0 mi SSW 9.2 mph - N/A   Mostly Cloudy
2:55 PM 85.3 °F 90.1 °F 70.5 °F 61% 29.89 in 10.0 mi South 8.1 mph - N/A   Mostly Cloudy
3:19 PM 87.8 °F 92.2 °F 69.4 °F 54% 29.88 in 10.0 mi SW 11.5 mph 17.3 mph N/A   Scattered Clouds
3:37 PM 86.9 °F 91.3 °F 69.3 °F 56% 29.88 in 10.0 mi SSW 13.8 mph - N/A   Mostly Cloudy
3:55 PM 88.9 °F 93.0 °F 68.5 °F 51% 29.87 in 10.0 mi SSW 10.4 mph - N/A   Mostly Cloudy
3:56 PM 88.5 °F 92.3 °F 68.4 °F 51% 29.87 in 10.0 mi SW 8.1 mph - N/A   Mostly Cloudy
4:15 PM 88.7 °F 92.6 °F 68.5 °F 51% 29.86 in 10.0 mi SSW 11.5 mph - N/A   Scattered Clouds
4:39 PM 89.4 °F 92.3 °F 66.7 °F 47% 29.85 in 7.0 mi SSW 10.4 mph 17.3 mph N/A   Scattered Clouds
4:57 PM 88.9 °F 91.4 °F 66.4 °F 47% 29.85 in 10.0 mi SSW 11.5 mph 18.4 mph N/A   Scattered Clouds
5:15 PM 89.1 °F 91.3 °F 66.0 °F 46% 29.85 in 10.0 mi SSW 12.7 mph 16.1 mph N/A   Scattered Clouds
5:16 PM 89.1 °F 91.3 °F 65.8 °F 46% 29.85 in 10.0 mi SSW 10.4 mph 16.1 mph N/A   Scattered Clouds
5:35 PM 88.0 °F 90.3 °F 66.0 °F 48% 29.85 in 10.0 mi SW 12.7 mph 18.4 mph N/A   Clear
5:36 PM 88.0 °F 90.3 °F 66.2 °F 48% 29.85 in 10.0 mi SW 11.5 mph 18.4 mph N/A   Clear
5:55 PM 88.9 °F 91.4 °F 66.4 °F 47% 29.85 in 10.0 mi SW 13.8 mph 18.4 mph N/A   Scattered Clouds
6:18 PM 88.0 °F 90.3 °F 66.0 °F 48% 29.84 in 10.0 mi SW 12.7 mph - N/A   Clear
6:36 PM 87.4 °F 89.8 °F 66.4 °F 49% 29.84 in 10.0 mi SW 12.7 mph - N/A   Clear
6:55 PM 87.4 °F 89.8 °F 66.2 °F 49% 29.83 in 10.0 mi SSW 12.7 mph - N/A   Clear
7:15 PM 87.1 °F 89.9 °F 66.9 °F 51% 29.82 in 10.0 mi SSW 11.5 mph 18.4 mph N/A   Clear
7:39 PM 86.5 °F 89.6 °F 67.6 °F 53% 29.82 in 10.0 mi SSW 11.5 mph - N/A   Clear
7:57 PM 85.6 °F 88.5 °F 67.5 °F 54% 29.82 in 10.0 mi SSW 9.2 mph - N/A   Clear
8:15 PM 85.1 °F 88.2 °F 68.0 °F 56% 29.81 in 10.0 mi SSW 8.1 mph - N/A   Clear
8:16 PM 85.1 °F 88.2 °F 68.0 °F 56% 29.81 in 10.0 mi SSW 9.2 mph - N/A   Clear
8:35 PM 84.0 °F 87.0 °F 67.6 °F 58% 29.81 in 10.0 mi SSW 9.2 mph - N/A   Clear
8:55 PM 82.6 °F 85.1 °F 67.1 °F 59% 29.81 in 10.0 mi SSW 6.9 mph - N/A   Clear
9:18 PM 81.1 °F 83.4 °F 66.7 °F 61% 29.81 in 10.0 mi SSW 8.1 mph - N/A   Clear
9:36 PM 79.9 °F - 66.9 °F 64% 29.81 in 10.0 mi SSW 5.8 mph - N/A   Scattered Clouds
9:55 PM 78.8 °F - 66.7 °F 66% 29.81 in 10.0 mi SSW 8.1 mph - N/A   Clear
9:56 PM 78.8 °F - 66.7 °F 66% 29.81 in 10.0 mi SSW 8.1 mph - N/A   Clear
10:15 PM 79.2 °F - 66.2 °F 64% 29.83 in 10.0 mi WSW 11.5 mph - N/A   Scattered Clouds
10:39 PM 79.0 °F - 63.0 °F 58% 29.84 in 10.0 mi WSW 9.2 mph 16.1 mph N/A   Scattered Clouds
10:57 PM 78.1 °F - 60.8 °F 55% 29.85 in 10.0 mi West 8.1 mph - N/A   Mostly Cloudy
11:15 PM 76.6 °F - 59.0 °F 54% 29.85 in 10.0 mi West 9.2 mph - N/A   Scattered Clouds
11:16 PM 76.5 °F - 59.0 °F 55% 29.85 in 10.0 mi West 8.1 mph - N/A   Scattered Clouds
11:35 PM 75.0 °F - 59.0 °F 57% 29.85 in 10.0 mi WNW 6.9 mph - N/A   Scattered Clouds
11:36 PM 74.8 °F - 59.0 °F 58% 29.85 in 10.0 mi WNW 8.1 mph - N/A   Scattered Clouds
11:55 PM 73.8 °F - 59.0 °F 60% 29.85 in 10.0 mi WNW 6.9 mph - N/A   Mostly Cloudy